Date,TemperatureHighF,TemperatureAvgF,TemperatureLowF,DewpointHighF,DewpointAvgF,DewpointLowF,HumidityHigh,HumidityAvg,HumidityLow,PressureMaxIn,PressureMinIn,WindSpeedMaxMPH,WindSpeedAvgMPH,GustSpeedMaxMPH,PrecipitationSumIn
2013-1-1,66,60,51,-100,-100,-100,0,0,100,0.00,40.00,0,-999,0,0.00
2013-1-2,51,46,43,-100,-100,-100,0,0,100,0.00,40.00,0,-999,0,0.00
2013-1-3,54,50,44,-100,-100,-100,0,0,100,0.00,40.00,0,-999,0,0.00
2013-1-4,53,51,48,-100,-100,-100,0,0,100,0.00,40.00,0,-999,0,0.00
2013-1-5,56,51,45,-100,-100,-100,0,0,100,0.00,40.00,0,-999,0,0.00
2013-1-6,65,49,38,-100,-100,-100,0,0,100,0.00,40.00,0,-999,0,0.00
2013-1-7,66,47,35,-100,-100,-100,0,0,100,0.00,40.00,0,-999,0,0.00
2013-1-8,71,62,56,-100,-100,-100,0,0,100,0.00,40.00,0,-999,0,0.00
2013-1-9,67,64,58,-100,-100,-100,0,0,100,0.00,40.00,0,-999,0,0.00
2013-1-10,74,64,58,-100,-100,-100,0,0,100,0.00,40.00,0,-999,0,0.00
2013-1-11,76,66,54,-100,-100,-100,0,0,100,0.00,40.00,0,-999,0,0.00
2013-1-12,80,77,58,-100,-100,-100,0,0,100,0.00,40.00,0,-999,0,0.00
2013-1-13,59,52,48,-100,-100,-100,0,0,100,0.00,40.00,0,-999,0,0.00
2013-1-14,54,48,43,-100,-100,-100,0,0,100,0.00,40.00,0,-999,0,0.00
2013-1-15,47,46,43,-100,-100,-100,0,0,100,0.00,40.00,0,-999,0,0.00
2013-1-16,50,44,40,-100,-100,-100,0,0,100,0.00,40.00,0,-999,0,0.00
2013-1-17,71,52,37,-100,-100,-100,0,0,100,0.00,40.00,0,-999,0,0.00
2013-1-18,66,47,39,-100,-100,-100,0,0,100,0.00,40.00,0,-999,0,0.00
2013-1-19,72,63,54,-100,-100,-100,0,0,100,0.00,40.00,0,-999,0,0.00
2013-1-20,76,59,47,-100,-100,-100,0,0,100,0.00,40.00,0,-999,0,0.00
2013-1-21,78,65,52,-100,-100,-100,0,0,100,0.00,40.00,0,-999,0,0.00
2013-1-22,77,64,51,-100,-100,-100,0,0,100,0.00,40.00,0,-999,0,0.00
2013-1-23,79,65,57,-100,-100,-100,0,0,100,0.00,40.00,0,-999,0,0.00
2013-1-24,86,72,66,-100,-100,-100,0,0,100,0.00,40.00,0,-999,0,0.00
2013-1-25,84,74,69,-100,-100,-100,0,0,100,0.00,40.00,0,-999,0,0.00
2013-1-26,83,69,61,-100,-100,-100,0,0,100,0.00,40.00,0,-999,0,0.00
2013-1-27,83,73,67,-100,-100,-100,0,0,100,0.00,40.00,0,-999,0,0.00
2013-1-28,82,78,76,-100,-100,-100,0,0,100,0.00,40.00,0,-999,0,0.00
2013-1-29,83,78,67,-100,-100,-100,0,0,100,0.00,40.00,0,-999,0,0.00
2013-1-30,68,60,47,-100,-100,-100,0,0,100,0.00,40.00,0,-999,0,0.00